Time,TemperatureF,DewpointF,PressureIn,WindDirection,WindDirectionDegrees,WindSpeedMPH,WindSpeedGustMPH,Humidity,HourlyPrecipIn,Conditions,Clouds,dailyrainin,SoftwareType,DateUTC
2013-02-20 00:00:00,58.3,34.7,29.86,SE,135,2.7,5.1,41,0.00,,,0.00,WUHU216HW,2013-02-20 06:00:00,
2013-02-20 00:05:00,58.3,34.7,29.85,SE,135,4.7,7.6,41,0.00,,,0.00,WUHU216HW,2013-02-20 06:05:00,
2013-02-20 00:10:00,58.1,34.5,29.85,SE,135,7.6,7.6,41,0.00,,,0.00,WUHU216HW,2013-02-20 06:10:00,
2013-02-20 00:15:00,58.0,34.4,29.84,SSE,158,5.4,7.6,41,0.00,,,0.00,WUHU216HW,2013-02-20 06:15:00,
2013-02-20 00:20:00,58.0,34.4,29.85,South,180,6.9,8.3,41,0.00,,,0.00,WUHU216HW,2013-02-20 06:20:00,
2013-02-20 00:25:00,58.0,34.4,29.84,SE,135,6.3,8.3,41,0.00,,,0.00,WUHU216HW,2013-02-20 06:25:00,
2013-02-20 00:30:00,58.0,34.4,29.84,SSE,158,3.4,7.6,41,0.00,,,0.00,WUHU216HW,2013-02-20 06:30:00,
2013-02-20 00:35:00,57.8,34.2,29.84,South,180,1.6,6.0,41,0.00,,,0.00,WUHU216HW,2013-02-20 06:35:00,
2013-02-20 00:40:00,57.8,34.2,29.83,SE,135,6.3,6.5,41,0.00,,,0.00,WUHU216HW,2013-02-20 06:40:00,
2013-02-20 00:45:00,57.6,34.0,29.82,SE,135,6.0,8.3,41,0.00,,,0.00,WUHU216HW,2013-02-20 06:45:00,
2013-02-20 00:50:00,57.6,34.6,29.81,SE,135,6.0,8.3,42,0.00,,,0.00,WUHU216HW,2013-02-20 06:50:00,
2013-02-20 00:55:00,57.4,34.5,29.82,SSE,158,6.3,6.5,42,0.00,,,0.00,WUHU216HW,2013-02-20 06:55:00,
2013-02-20 01:00:00,57.2,34.3,29.82,South,180,4.0,6.5,42,0.00,,,0.00,WUHU216HW,2013-02-20 07:00:00,
2013-02-20 01:05:00,57.2,34.3,29.82,SSE,158,4.0,6.5,42,0.00,,,0.00,WUHU216HW,2013-02-20 07:05:00,
2013-02-20 01:10:00,57.2,34.3,29.83,SSE,158,2.5,6.5,42,0.00,,,0.00,WUHU216HW,2013-02-20 07:10:00,
2013-02-20 01:15:00,57.2,34.8,29.83,SE,135,6.7,6.7,43,0.00,,,0.00,WUHU216HW,2013-02-20 07:15:00,
2013-02-20 01:20:00,57.2,34.8,29.83,ESE,113,4.7,6.9,43,0.00,,,0.00,WUHU216HW,2013-02-20 07:20:00,
2013-02-20 01:25:00,57.2,34.8,29.82,East,90,4.7,8.5,43,0.00,,,0.00,WUHU216HW,2013-02-20 07:25:00,
2013-02-20 01:30:00,57.2,34.8,29.82,SE,135,4.0,8.5,43,0.00,,,0.00,WUHU216HW,2013-02-20 07:30:00,
2013-02-20 01:35:00,57.1,35.3,29.82,SE,135,6.5,7.8,44,0.00,,,0.00,WUHU216HW,2013-02-20 07:35:00,
2013-02-20 01:40:00,56.9,34.5,29.82,SE,135,6.0,7.8,43,0.00,,,0.00,WUHU216HW,2013-02-20 07:40:00,
2013-02-20 01:45:00,56.9,34.5,29.83,SSE,158,3.4,8.5,43,0.00,,,0.00,WUHU216HW,2013-02-20 07:45:00,
2013-02-20 01:50:00,56.9,34.5,29.83,South,180,3.1,8.5,43,0.00,,,0.00,WUHU216HW,2013-02-20 07:50:00,
2013-02-20 01:55:00,56.9,34.5,29.82,SSE,158,6.9,9.2,43,0.00,,,0.00,WUHU216HW,2013-02-20 07:55:00,
2013-02-20 02:00:00,56.7,34.4,29.80,SE,135,8.7,9.2,43,0.00,,,0.00,WUHU216HW,2013-02-20 08:00:00,
2013-02-20 02:05:00,56.7,34.4,29.79,SSE,158,8.5,9.2,43,0.00,,,0.00,WUHU216HW,2013-02-20 08:05:00,
2013-02-20 02:10:00,56.5,34.2,29.79,SSE,158,7.2,9.2,43,0.00,,,0.00,WUHU216HW,2013-02-20 08:10:00,
2013-02-20 02:15:00,56.5,34.2,29.80,SE,135,7.6,11.4,43,0.00,,,0.00,WUHU216HW,2013-02-20 08:15:00,
2013-02-20 02:20:00,56.5,34.2,29.79,East,90,5.1,11.4,43,0.00,,,0.00,WUHU216HW,2013-02-20 08:20:00,
2013-02-20 02:25:00,56.2,33.8,29.79,SSW,203,5.4,10.7,43,0.00,,,0.00,WUHU216HW,2013-02-20 08:25:00,
2013-02-20 02:30:00,56.2,33.8,29.78,SE,135,5.6,10.7,43,0.00,,,0.00,WUHU216HW,2013-02-20 08:30:00,
2013-02-20 02:35:00,56.2,33.8,29.78,SE,135,9.8,13.2,43,0.00,,,0.00,WUHU216HW,2013-02-20 08:35:00,
2013-02-20 02:40:00,56.2,33.8,29.80,SSW,203,6.9,13.2,43,0.00,,,0.00,WUHU216HW,2013-02-20 08:40:00,
2013-02-20 02:45:00,56.2,33.8,29.81,SSE,158,6.5,9.6,43,0.00,,,0.00,WUHU216HW,2013-02-20 08:45:00,
2013-02-20 02:50:00,56.2,33.8,29.81,SE,135,7.4,10.3,43,0.00,,,0.00,WUHU216HW,2013-02-20 08:50:00,
2013-02-20 02:55:00,56.2,33.8,29.81,ESE,113,6.9,11.2,43,0.00,,,0.00,WUHU216HW,2013-02-20 08:55:00,
2013-02-20 03:00:00,56.2,34.4,29.81,SE,135,5.8,11.2,44,0.00,,,0.00,WUHU216HW,2013-02-20 09:00:00,
2013-02-20 03:05:00,56.2,33.8,29.81,SE,135,7.8,11.0,43,0.00,,,0.00,WUHU216HW,2013-02-20 09:05:00,
2013-02-20 03:10:00,56.2,33.8,29.80,SE,135,4.9,9.8,43,0.00,,,0.00,WUHU216HW,2013-02-20 09:10:00,
2013-02-20 03:15:00,56.2,33.8,29.81,SE,135,4.0,9.8,43,0.00,,,0.00,WUHU216HW,2013-02-20 09:15:00,
2013-02-20 03:20:00,56.2,33.8,29.83,SSW,203,1.6,6.7,43,0.00,,,0.00,WUHU216HW,2013-02-20 09:20:00,
2013-02-20 03:25:00,56.2,33.8,29.81,SSE,158,7.6,7.6,43,0.00,,,0.00,WUHU216HW,2013-02-20 09:25:00,
2013-02-20 03:30:00,56.0,33.1,29.79,SE,135,8.5,8.7,42,0.00,,,0.00,WUHU216HW,2013-02-20 09:30:00,
2013-02-20 03:35:00,56.0,33.1,29.78,South,180,7.4,9.6,42,0.00,,,0.00,WUHU216HW,2013-02-20 09:35:00,
2013-02-20 03:40:00,56.0,32.0,29.79,SSE,158,7.2,9.6,40,0.00,,,0.00,WUHU216HW,2013-02-20 09:40:00,
2013-02-20 03:45:00,56.0,31.3,29.79,SSE,158,8.7,9.8,39,0.00,,,0.00,WUHU216HW,2013-02-20 09:45:00,
2013-02-20 03:50:00,56.0,30.6,29.79,SSE,158,12.5,12.5,38,0.00,,,0.00,WUHU216HW,2013-02-20 09:50:00,
2013-02-20 03:55:00,56.0,30.6,29.78,SE,135,10.7,16.3,38,0.00,,,0.00,WUHU216HW,2013-02-20 09:55:00,
2013-02-20 04:00:00,56.0,30.6,29.79,SE,135,15.0,16.3,38,0.00,,,0.00,WUHU216HW,2013-02-20 10:00:00,
2013-02-20 04:05:00,55.8,31.2,29.78,ESE,113,12.1,15.0,39,0.00,,,0.00,WUHU216HW,2013-02-20 10:05:00,
2013-02-20 04:10:00,55.8,31.9,29.78,SSE,158,9.8,15.0,40,0.00,,,0.00,WUHU216HW,2013-02-20 10:10:00,
2013-02-20 04:15:00,55.8,32.4,29.80,South,180,6.5,15.0,41,0.00,,,0.00,WUHU216HW,2013-02-20 10:15:00,
2013-02-20 04:20:00,55.8,32.4,29.80,South,180,9.2,13.2,41,0.00,,,0.00,WUHU216HW,2013-02-20 10:20:00,
2013-02-20 04:25:00,55.6,33.3,29.79,SE,135,13.9,13.9,43,0.00,,,0.00,WUHU216HW,2013-02-20 10:25:00,
2013-02-20 04:30:00,55.6,33.3,29.78,SE,135,10.5,15.9,43,0.00,,,0.00,WUHU216HW,2013-02-20 10:30:00,
2013-02-20 04:35:00,55.4,33.8,29.79,SSE,158,13.4,17.0,44,0.00,,,0.00,WUHU216HW,2013-02-20 10:35:00,
2013-02-20 04:40:00,55.4,34.3,29.79,SSE,158,9.4,17.0,45,0.00,,,0.00,WUHU216HW,2013-02-20 10:40:00,
2013-02-20 04:45:00,55.4,34.8,29.79,SSW,203,13.2,15.9,46,0.00,,,0.00,WUHU216HW,2013-02-20 10:45:00,
2013-02-20 04:50:00,55.3,35.3,29.78,SE,135,13.0,17.9,47,0.00,,,0.00,WUHU216HW,2013-02-20 10:50:00,
2013-02-20 04:55:00,55.1,35.6,29.77,SSE,158,12.1,17.9,48,0.00,,,0.00,WUHU216HW,2013-02-20 10:55:00,
2013-02-20 05:00:00,55.1,35.6,29.77,SE,135,14.5,15.0,48,0.00,,,0.00,WUHU216HW,2013-02-20 11:00:00,
2013-02-20 05:05:00,54.9,36.0,29.76,SE,135,10.1,17.9,49,0.00,,,0.00,WUHU216HW,2013-02-20 11:05:00,
2013-02-20 05:10:00,54.9,36.6,29.77,SSE,158,10.5,17.9,50,0.00,,,0.00,WUHU216HW,2013-02-20 11:10:00,
2013-02-20 05:15:00,54.7,36.5,29.77,South,180,10.5,15.0,50,0.00,,,0.00,WUHU216HW,2013-02-20 11:15:00,
2013-02-20 05:20:00,54.5,36.7,29.76,SSE,158,14.5,15.0,51,0.00,,,0.00,WUHU216HW,2013-02-20 11:20:00,
2013-02-20 05:25:00,54.5,36.7,29.75,SSE,158,22.8,22.8,51,0.00,,,0.00,WUHU216HW,2013-02-20 11:25:00,
2013-02-20 05:30:00,54.4,37.1,29.74,SE,135,13.6,22.8,52,0.00,,,0.00,WUHU216HW,2013-02-20 11:30:00,
2013-02-20 05:35:00,54.4,37.5,29.74,ESE,113,13.6,18.8,53,0.00,,,0.00,WUHU216HW,2013-02-20 11:35:00,
2013-02-20 05:40:00,54.2,37.4,29.74,SSE,158,7.8,19.0,53,0.00,,,0.00,WUHU216HW,2013-02-20 11:40:00,
2013-02-20 05:45:00,54.2,37.4,29.74,South,180,5.4,19.0,53,0.00,,,0.00,WUHU216HW,2013-02-20 11:45:00,
2013-02-20 05:50:00,54.2,37.8,29.73,SE,135,13.0,15.2,54,0.00,,,0.00,WUHU216HW,2013-02-20 11:50:00,
2013-02-20 05:55:00,54.0,37.6,29.73,SSE,158,13.2,14.3,54,0.00,,,0.00,WUHU216HW,2013-02-20 11:55:00,
2013-02-20 06:00:00,54.0,37.6,29.73,SE,135,8.9,14.3,54,0.00,,,0.00,WUHU216HW,2013-02-20 12:00:00,
2013-02-20 06:05:00,54.0,38.2,29.71,SE,135,18.6,18.6,55,0.00,,,0.00,WUHU216HW,2013-02-20 12:05:00,
2013-02-20 06:10:00,53.8,38.4,29.71,SSE,158,17.4,18.6,56,0.00,,,0.00,WUHU216HW,2013-02-20 12:10:00,
2013-02-20 06:15:00,53.6,38.3,29.71,SE,135,14.3,20.8,56,0.00,,,0.00,WUHU216HW,2013-02-20 12:15:00,
2013-02-20 06:20:00,53.6,38.7,29.70,SE,135,17.0,20.8,57,0.00,,,0.00,WUHU216HW,2013-02-20 12:20:00,
2013-02-20 06:25:00,53.6,38.7,29.71,SSE,158,14.1,20.6,57,0.00,,,0.00,WUHU216HW,2013-02-20 12:25:00,
2013-02-20 06:30:00,53.6,39.3,29.71,SSE,158,12.1,19.2,58,0.00,,,0.00,WUHU216HW,2013-02-20 12:30:00,
2013-02-20 06:35:00,53.6,39.3,29.71,ESE,113,12.5,17.2,58,0.00,,,0.00,WUHU216HW,2013-02-20 12:35:00,
2013-02-20 06:40:00,53.6,39.7,29.71,SE,135,14.5,17.2,59,0.00,,,0.00,WUHU216HW,2013-02-20 12:40:00,
2013-02-20 06:45:00,53.6,40.1,29.71,ESE,113,12.8,15.0,60,0.00,,,0.00,WUHU216HW,2013-02-20 12:45:00,
2013-02-20 06:50:00,53.8,40.3,29.71,SE,135,9.4,15.7,60,0.00,,,0.00,WUHU216HW,2013-02-20 12:50:00,
2013-02-20 06:55:00,53.8,40.3,29.71,SSE,158,13.0,18.8,60,0.00,,,0.00,WUHU216HW,2013-02-20 12:55:00,
2013-02-20 07:00:00,53.8,39.9,29.70,SE,135,9.2,18.8,59,0.00,,,0.00,WUHU216HW,2013-02-20 13:00:00,
2013-02-20 07:05:00,53.6,40.1,29.71,SE,135,15.7,18.6,60,0.00,,,0.00,WUHU216HW,2013-02-20 13:05:00,
2013-02-20 07:10:00,53.6,40.1,29.71,SE,135,10.1,18.6,60,0.00,,,0.00,WUHU216HW,2013-02-20 13:10:00,
2013-02-20 07:15:00,53.6,40.1,29.71,SE,135,11.4,16.8,60,0.00,,,0.00,WUHU216HW,2013-02-20 13:15:00,
2013-02-20 07:20:00,53.6,40.1,29.71,SE,135,10.3,20.1,60,0.00,,,0.00,WUHU216HW,2013-02-20 13:20:00,
2013-02-20 07:25:00,53.5,40.0,29.71,SSE,158,10.1,20.1,60,0.00,,,0.00,WUHU216HW,2013-02-20 13:25:00,
2013-02-20 07:30:00,53.5,40.0,29.73,SE,135,10.1,17.9,60,0.00,,,0.00,WUHU216HW,2013-02-20 13:30:00,
2013-02-20 07:35:00,53.5,40.3,29.73,SSE,158,11.9,15.9,61,0.00,,,0.00,WUHU216HW,2013-02-20 13:35:00,
2013-02-20 07:40:00,53.5,40.3,29.73,SE,135,8.9,15.7,61,0.00,,,0.00,WUHU216HW,2013-02-20 13:40:00,
2013-02-20 07:45:00,53.5,40.8,29.72,SE,135,10.3,14.3,62,0.00,,,0.00,WUHU216HW,2013-02-20 13:45:00,
2013-02-20 07:50:00,53.5,40.8,29.72,SE,135,8.5,14.3,62,0.00,,,0.00,WUHU216HW,2013-02-20 13:50:00,
2013-02-20 07:55:00,53.5,41.1,29.71,SE,135,11.9,15.0,63,0.00,,,0.00,WUHU216HW,2013-02-20 13:55:00,
2013-02-20 08:00:00,53.5,41.6,29.72,SE,135,15.2,15.2,64,0.00,,,0.00,WUHU216HW,2013-02-20 14:00:00,
2013-02-20 08:05:00,53.5,41.6,29.72,ESE,113,10.7,15.7,64,0.00,,,0.00,WUHU216HW,2013-02-20 14:05:00,
2013-02-20 08:10:00,53.5,41.6,29.71,SE,135,16.6,16.6,64,0.00,,,0.00,WUHU216HW,2013-02-20 14:10:00,
2013-02-20 08:15:00,53.5,41.6,29.71,ESE,113,9.2,16.6,64,0.00,,,0.00,WUHU216HW,2013-02-20 14:15:00,
2013-02-20 08:20:00,53.6,41.8,29.71,ESE,113,7.6,12.1,64,0.00,,,0.00,WUHU216HW,2013-02-20 14:20:00,
2013-02-20 08:25:00,53.6,41.8,29.72,SSE,158,7.6,11.0,64,0.00,,,0.00,WUHU216HW,2013-02-20 14:25:00,
2013-02-20 08:30:00,53.6,41.8,29.72,SE,135,8.1,14.1,64,0.00,,,0.00,WUHU216HW,2013-02-20 14:30:00,
2013-02-20 08:35:00,53.6,41.8,29.73,SSE,158,10.5,14.1,64,0.00,,,0.00,WUHU216HW,2013-02-20 14:35:00,
2013-02-20 08:40:00,53.5,41.6,29.73,SE,135,6.9,13.2,64,0.00,,,0.00,WUHU216HW,2013-02-20 14:40:00,
2013-02-20 08:45:00,53.5,41.6,29.75,ESE,113,11.2,11.2,64,0.00,,,0.00,WUHU216HW,2013-02-20 14:45:00,
2013-02-20 08:50:00,53.5,41.6,29.76,ESE,113,3.1,11.2,64,0.00,,,0.00,WUHU216HW,2013-02-20 14:50:00,
2013-02-20 08:55:00,53.5,41.6,29.77,ESE,113,3.6,9.4,64,0.00,,,0.00,WUHU216HW,2013-02-20 14:55:00,
2013-02-20 09:00:00,53.5,41.6,29.78,ENE,68,1.8,4.3,64,0.00,,,0.00,WUHU216HW,2013-02-20 15:00:00,
2013-02-20 09:05:00,53.5,41.1,29.78,East,90,1.3,3.4,63,0.00,,,0.00,WUHU216HW,2013-02-20 15:05:00,
2013-02-20 09:10:00,53.5,41.1,29.79,East,90,1.1,2.5,63,0.00,,,0.00,WUHU216HW,2013-02-20 15:10:00,
2013-02-20 09:15:00,53.5,41.1,29.77,ESE,113,3.4,4.3,63,0.00,,,0.00,WUHU216HW,2013-02-20 15:15:00,
2013-02-20 09:20:00,53.5,41.6,29.77,South,180,3.8,5.4,64,0.00,,,0.00,WUHU216HW,2013-02-20 15:20:00,
2013-02-20 09:25:00,53.5,41.6,29.77,ESE,113,4.7,6.5,64,0.00,,,0.00,WUHU216HW,2013-02-20 15:25:00,
2013-02-20 09:30:00,53.5,41.6,29.76,SSE,158,2.9,6.5,64,0.00,,,0.00,WUHU216HW,2013-02-20 15:30:00,
2013-02-20 09:35:00,53.5,41.9,29.75,ESE,113,3.4,5.6,65,0.00,,,0.00,WUHU216HW,2013-02-20 15:35:00,
2013-02-20 09:40:00,53.5,41.9,29.74,SE,135,6.7,6.9,65,0.00,,,0.00,WUHU216HW,2013-02-20 15:40:00,
2013-02-20 09:45:00,53.6,42.9,29.73,ESE,113,9.2,9.2,67,0.00,,,0.00,WUHU216HW,2013-02-20 15:45:00,
2013-02-20 09:50:00,53.8,43.1,29.73,SSE,158,6.3,11.0,67,0.00,,,0.00,WUHU216HW,2013-02-20 15:50:00,
2013-02-20 09:55:00,54.0,43.3,29.73,SE,135,9.4,11.2,67,0.00,,,0.00,WUHU216HW,2013-02-20 15:55:00,
2013-02-20 10:00:00,54.4,43.7,29.73,SSE,158,9.8,11.2,67,0.00,,,0.00,WUHU216HW,2013-02-20 16:00:00,
2013-02-20 10:05:00,54.5,43.8,29.73,ESE,113,8.1,10.7,67,0.00,,,0.00,WUHU216HW,2013-02-20 16:05:00,
2013-02-20 10:10:00,54.5,43.8,29.73,SE,135,13.4,13.4,67,0.00,,,0.00,WUHU216HW,2013-02-20 16:10:00,
2013-02-20 10:15:00,54.5,44.2,29.73,SE,135,8.7,13.4,68,0.00,,,0.00,WUHU216HW,2013-02-20 16:15:00,
2013-02-20 10:20:00,54.4,44.5,29.72,SE,135,8.5,12.8,69,0.00,,,0.00,WUHU216HW,2013-02-20 16:20:00,
2013-02-20 10:25:00,54.5,45.0,29.72,South,180,8.5,12.8,70,0.00,,,0.00,WUHU216HW,2013-02-20 16:25:00,
2013-02-20 10:30:00,55.1,45.5,29.72,SE,135,14.3,14.3,70,0.00,,,0.00,WUHU216HW,2013-02-20 16:30:00,
2013-02-20 10:35:00,55.1,45.9,29.71,SE,135,15.0,15.7,71,0.00,,,0.00,WUHU216HW,2013-02-20 16:35:00,
2013-02-20 10:40:00,55.3,46.1,29.71,SSE,158,8.9,15.7,71,0.00,,,0.00,WUHU216HW,2013-02-20 16:40:00,
2013-02-20 10:45:00,55.6,46.5,29.71,SE,135,11.9,13.0,71,0.00,,,0.00,WUHU216HW,2013-02-20 16:45:00,
2013-02-20 10:50:00,56.0,46.7,29.70,SSE,158,4.0,13.0,71,0.00,,,0.00,WUHU216HW,2013-02-20 16:50:00,
2013-02-20 10:55:00,56.2,46.9,29.70,East,90,16.3,16.3,71,0.00,,,0.00,WUHU216HW,2013-02-20 16:55:00,
2013-02-20 11:00:00,56.0,46.7,29.70,SSE,158,11.6,16.3,71,0.00,,,0.00,WUHU216HW,2013-02-20 17:00:00,
2013-02-20 11:05:00,56.0,47.1,29.70,SE,135,13.9,16.1,72,0.00,,,0.00,WUHU216HW,2013-02-20 17:05:00,
2013-02-20 11:10:00,56.2,47.6,29.69,SE,135,12.1,15.7,73,0.00,,,0.00,WUHU216HW,2013-02-20 17:10:00,
2013-02-20 11:15:00,56.2,47.3,29.69,SSE,158,8.5,15.7,72,0.00,,,0.00,WUHU216HW,2013-02-20 17:15:00,
2013-02-20 11:20:00,56.7,47.7,29.69,ESE,113,8.5,13.6,72,0.00,,,0.00,WUHU216HW,2013-02-20 17:20:00,
2013-02-20 11:25:00,56.9,47.5,29.69,SE,135,11.9,11.9,71,0.00,,,0.00,WUHU216HW,2013-02-20 17:25:00,
2013-02-20 11:30:00,56.9,47.9,29.69,SSE,158,10.5,11.9,72,0.00,,,0.00,WUHU216HW,2013-02-20 17:30:00,
2013-02-20 11:35:00,56.9,48.2,29.69,SE,135,7.6,16.6,73,0.00,,,0.00,WUHU216HW,2013-02-20 17:35:00,
2013-02-20 11:40:00,57.4,48.8,29.69,SSE,158,10.1,16.6,73,0.00,,,0.00,WUHU216HW,2013-02-20 17:40:00,
2013-02-20 11:45:00,57.4,48.8,29.69,SSE,158,9.4,15.0,73,0.00,,,0.00,WUHU216HW,2013-02-20 17:45:00,
2013-02-20 11:50:00,57.6,49.0,29.68,SE,135,17.9,17.9,73,0.00,,,0.00,WUHU216HW,2013-02-20 17:50:00,
2013-02-20 11:55:00,57.4,48.8,29.68,SE,135,11.4,17.9,73,0.00,,,0.00,WUHU216HW,2013-02-20 17:55:00,
2013-02-20 12:00:00,57.4,48.8,29.68,SE,135,7.6,15.9,73,0.00,,,0.00,WUHU216HW,2013-02-20 18:00:00,
2013-02-20 12:05:00,57.4,48.8,29.68,SE,135,13.0,13.0,73,0.00,,,0.00,WUHU216HW,2013-02-20 18:05:00,
2013-02-20 12:10:00,57.4,48.8,29.68,SE,135,9.4,13.2,73,0.00,,,0.00,WUHU216HW,2013-02-20 18:10:00,
2013-02-20 12:15:00,57.2,49.0,29.67,SE,135,10.5,13.4,74,0.00,,,0.00,WUHU216HW,2013-02-20 18:15:00,
2013-02-20 12:20:00,57.1,48.8,29.67,SE,135,11.9,13.4,74,0.00,,,0.00,WUHU216HW,2013-02-20 18:20:00,
2013-02-20 12:25:00,57.2,49.3,29.66,SSE,158,9.8,12.1,75,0.00,,,0.00,WUHU216HW,2013-02-20 18:25:00,
2013-02-20 12:30:00,57.6,49.3,29.66,SE,135,8.5,11.6,74,0.00,,,0.00,WUHU216HW,2013-02-20 18:30:00,
2013-02-20 12:35:00,57.2,49.3,29.66,SSE,158,11.4,12.3,75,0.00,,,0.00,WUHU216HW,2013-02-20 18:35:00,
2013-02-20 12:40:00,57.2,49.3,29.66,SE,135,11.0,12.3,75,0.00,,,0.00,WUHU216HW,2013-02-20 18:40:00,
2013-02-20 12:45:00,57.2,49.7,29.65,SE,135,6.0,11.0,76,0.00,,,0.00,WUHU216HW,2013-02-20 18:45:00,
2013-02-20 12:50:00,57.6,50.0,29.65,ESE,113,12.1,12.1,76,0.00,,,0.00,WUHU216HW,2013-02-20 18:50:00,
2013-02-20 12:55:00,57.6,50.0,29.65,SE,135,8.9,12.1,76,0.00,,,0.00,WUHU216HW,2013-02-20 18:55:00,
2013-02-20 13:00:00,57.6,50.0,29.65,SE,135,12.5,12.5,76,0.00,,,0.00,WUHU216HW,2013-02-20 19:00:00,
2013-02-20 13:05:00,57.6,50.0,29.64,ESE,113,7.6,12.5,76,0.00,,,0.00,WUHU216HW,2013-02-20 19:05:00,
2013-02-20 13:10:00,57.6,50.4,29.63,SE,135,15.7,15.7,77,0.00,,,0.00,WUHU216HW,2013-02-20 19:10:00,
2013-02-20 13:15:00,57.6,50.4,29.63,South,180,8.9,15.7,77,0.00,,,0.00,WUHU216HW,2013-02-20 19:15:00,
2013-02-20 13:20:00,57.6,50.4,29.63,SE,135,9.8,11.0,77,0.00,,,0.00,WUHU216HW,2013-02-20 19:20:00,
2013-02-20 13:25:00,57.6,50.4,29.62,SE,135,8.7,13.2,77,0.00,,,0.00,WUHU216HW,2013-02-20 19:25:00,
2013-02-20 13:30:00,57.8,50.9,29.62,South,180,9.8,13.2,78,0.00,,,0.00,WUHU216HW,2013-02-20 19:30:00,
2013-02-20 13:35:00,57.6,50.8,29.61,SE,135,10.5,12.1,78,0.00,,,0.00,WUHU216HW,2013-02-20 19:35:00,
2013-02-20 13:40:00,57.6,50.8,29.61,ESE,113,13.0,13.0,78,0.00,,,0.00,WUHU216HW,2013-02-20 19:40:00,
2013-02-20 13:45:00,57.6,51.1,29.60,SE,135,12.1,14.8,79,0.00,,,0.00,WUHU216HW,2013-02-20 19:45:00,
2013-02-20 13:50:00,57.4,50.9,29.60,ESE,113,8.5,14.8,79,0.00,,,0.00,WUHU216HW,2013-02-20 19:50:00,
2013-02-20 13:55:00,57.4,50.9,29.60,SE,135,13.2,15.4,79,0.00,,,0.00,WUHU216HW,2013-02-20 19:55:00,
2013-02-20 14:00:00,57.2,50.8,29.59,SSE,158,12.8,15.4,79,0.00,,,0.00,WUHU216HW,2013-02-20 20:00:00,
2013-02-20 14:05:00,57.2,51.1,29.59,SE,135,7.8,12.8,80,0.00,,,0.00,WUHU216HW,2013-02-20 20:05:00,
2013-02-20 14:10:00,57.2,51.1,29.59,ESE,113,10.1,12.1,80,0.00,,,0.00,WUHU216HW,2013-02-20 20:10:00,
2013-02-20 14:15:00,57.1,50.9,29.59,SE,135,6.3,12.1,80,0.00,,,0.00,WUHU216HW,2013-02-20 20:15:00,
2013-02-20 14:20:00,57.1,51.3,29.59,ESE,113,6.9,9.8,81,0.00,,,0.00,WUHU216HW,2013-02-20 20:20:00,
2013-02-20 14:25:00,56.9,50.8,29.59,SE,135,3.4,8.5,80,0.00,,,0.00,WUHU216HW,2013-02-20 20:25:00,
2013-02-20 14:30:00,56.9,51.1,29.59,ESE,113,7.4,9.2,81,0.00,,,0.00,WUHU216HW,2013-02-20 20:30:00,
2013-02-20 14:35:00,57.1,51.3,29.58,SE,135,4.3,9.2,81,0.00,,,0.00,WUHU216HW,2013-02-20 20:35:00,
2013-02-20 14:40:00,57.1,51.3,29.58,East,90,4.0,8.5,81,0.00,,,0.00,WUHU216HW,2013-02-20 20:40:00,
2013-02-20 14:45:00,56.9,51.4,29.59,SE,135,4.9,8.5,82,0.00,,,0.00,WUHU216HW,2013-02-20 20:45:00,
2013-02-20 14:50:00,56.7,51.2,29.59,SE,135,2.7,7.6,82,0.00,,,0.00,WUHU216HW,2013-02-20 20:50:00,
2013-02-20 14:55:00,56.7,51.6,29.59,East,90,3.4,6.0,83,0.00,,,0.00,WUHU216HW,2013-02-20 20:55:00,
2013-02-20 15:00:00,56.7,51.6,29.58,ESE,113,3.8,5.6,83,0.00,,,0.00,WUHU216HW,2013-02-20 21:00:00,
2013-02-20 15:05:00,56.7,51.6,29.58,SE,135,4.5,6.9,83,0.00,,,0.00,WUHU216HW,2013-02-20 21:05:00,
2013-02-20 15:10:00,56.7,51.6,29.58,ESE,113,4.7,6.9,83,0.00,,,0.00,WUHU216HW,2013-02-20 21:10:00,
2013-02-20 15:15:00,56.7,51.6,29.57,ENE,68,4.3,6.0,83,0.00,,,0.00,WUHU216HW,2013-02-20 21:15:00,
2013-02-20 15:20:00,56.5,51.7,29.57,ESE,113,5.4,5.4,84,0.00,,,0.00,WUHU216HW,2013-02-20 21:20:00,
2013-02-20 15:25:00,56.5,52.0,29.57,SE,135,5.4,6.0,85,0.00,,,0.00,WUHU216HW,2013-02-20 21:25:00,
2013-02-20 15:30:00,56.5,51.7,29.57,SE,135,4.0,6.0,84,0.00,,,0.00,WUHU216HW,2013-02-20 21:30:00,
2013-02-20 15:35:00,56.3,51.8,29.57,SE,135,3.8,6.0,85,0.00,,,0.00,WUHU216HW,2013-02-20 21:35:00,
2013-02-20 15:40:00,56.3,52.2,29.56,SE,135,2.5,6.0,86,0.00,,,0.00,WUHU216HW,2013-02-20 21:40:00,
2013-02-20 15:45:00,56.2,52.0,29.56,SE,135,3.4,7.6,86,0.00,,,0.00,WUHU216HW,2013-02-20 21:45:00,
2013-02-20 15:50:00,56.2,52.0,29.56,ESE,113,4.3,7.6,86,0.00,,,0.00,WUHU216HW,2013-02-20 21:50:00,
2013-02-20 15:55:00,56.0,52.1,29.55,South,180,4.9,7.4,87,0.00,,,0.00,WUHU216HW,2013-02-20 21:55:00,
2013-02-20 16:00:00,55.8,51.9,29.55,SE,135,6.3,7.2,87,0.00,,,0.00,WUHU216HW,2013-02-20 22:00:00,
2013-02-20 16:05:00,55.8,52.3,29.55,SE,135,7.6,7.6,88,0.00,,,0.00,WUHU216HW,2013-02-20 22:05:00,
2013-02-20 16:10:00,55.8,52.3,29.54,ESE,113,5.1,8.3,88,0.00,,,0.00,WUHU216HW,2013-02-20 22:10:00,
2013-02-20 16:15:00,55.8,52.3,29.54,ESE,113,4.7,8.3,88,0.00,,,0.00,WUHU216HW,2013-02-20 22:15:00,
2013-02-20 16:20:00,55.6,52.1,29.53,SE,135,7.4,8.3,88,0.00,,,0.00,WUHU216HW,2013-02-20 22:20:00,
2013-02-20 16:25:00,55.4,52.2,29.54,SSE,158,3.6,8.3,89,0.00,,,0.00,WUHU216HW,2013-02-20 22:25:00,
2013-02-20 16:30:00,55.4,52.2,29.54,SE,135,6.3,8.5,89,0.00,,,0.00,WUHU216HW,2013-02-20 22:30:00,
2013-02-20 16:35:00,55.1,51.8,29.54,ESE,113,9.2,9.2,89,0.00,,,0.00,WUHU216HW,2013-02-20 22:35:00,
2013-02-20 16:40:00,55.1,51.8,29.54,SE,135,5.4,9.2,89,0.00,,,0.00,WUHU216HW,2013-02-20 22:40:00,
2013-02-20 16:45:00,55.1,51.8,29.54,SSE,158,6.7,6.7,89,0.00,,,0.00,WUHU216HW,2013-02-20 22:45:00,
2013-02-20 16:50:00,55.1,51.8,29.53,East,90,4.9,6.7,89,0.00,,,0.00,WUHU216HW,2013-02-20 22:50:00,
2013-02-20 16:55:00,55.1,51.8,29.53,SE,135,5.4,5.8,89,0.00,,,0.00,WUHU216HW,2013-02-20 22:55:00,
2013-02-20 17:00:00,55.1,51.8,29.53,East,90,5.1,6.3,89,0.00,,,0.00,WUHU216HW,2013-02-20 23:00:00,
2013-02-20 17:05:00,55.1,51.8,29.53,ESE,113,3.8,7.6,89,0.00,,,0.00,WUHU216HW,2013-02-20 23:05:00,
2013-02-20 17:10:00,54.9,52.0,29.53,East,90,3.1,7.6,90,0.00,,,0.00,WUHU216HW,2013-02-20 23:10:00,
2013-02-20 17:16:00,55.1,52.2,29.52,ESE,113,3.6,5.6,90,0.00,,,0.00,WUHU216HW,2013-02-20 23:16:00,
2013-02-20 17:20:00,55.1,52.2,29.52,SE,135,2.5,4.7,90,0.01,,,0.00,WUHU216HW,2013-02-20 23:20:00,
2013-02-20 17:25:00,55.1,52.2,29.52,SE,135,4.7,6.7,90,0.01,,,0.00,WUHU216HW,2013-02-20 23:25:00,
2013-02-20 17:30:00,55.1,52.2,29.52,East,90,3.4,6.7,90,0.01,,,0.00,WUHU216HW,2013-02-20 23:30:00,
2013-02-20 17:35:00,55.1,52.2,29.52,East,90,3.1,5.4,90,0.01,,,0.00,WUHU216HW,2013-02-20 23:35:00,
2013-02-20 17:40:00,55.1,52.2,29.52,SE,135,1.6,4.0,90,0.01,,,0.00,WUHU216HW,2013-02-20 23:40:00,
2013-02-20 17:45:00,55.3,52.4,29.52,SE,135,2.5,4.0,90,0.01,,,0.00,WUHU216HW,2013-02-20 23:45:00,
2013-02-20 17:50:00,55.4,52.6,29.52,SE,135,2.2,2.9,90,0.01,,,0.00,WUHU216HW,2013-02-20 23:50:00,
2013-02-20 17:55:00,55.6,52.7,29.52,ESE,113,4.0,4.0,90,0.01,,,0.00,WUHU216HW,2013-02-20 23:55:00,
2013-02-20 18:00:00,55.8,52.9,29.51,South,180,2.7,4.3,90,0.01,,,0.00,WUHU216HW,2013-02-21 00:00:00,
2013-02-20 18:05:00,56.0,53.4,29.52,SE,135,5.8,5.8,91,0.01,,,0.00,WUHU216HW,2013-02-21 00:05:00,
2013-02-20 18:10:00,56.5,54.2,29.51,SE,135,6.9,7.2,92,0.01,,,0.00,WUHU216HW,2013-02-21 00:10:00,
2013-02-20 18:15:00,56.7,54.4,29.51,SE,135,7.6,7.6,92,0.01,,,0.00,WUHU216HW,2013-02-21 00:15:00,
2013-02-20 18:20:00,57.1,54.7,29.51,ESE,113,7.4,7.8,92,0.00,,,0.00,WUHU216HW,2013-02-21 00:20:00,
2013-02-20 18:25:00,57.2,54.9,29.51,ESE,113,6.7,9.8,92,0.00,,,0.00,WUHU216HW,2013-02-21 00:25:00,
2013-02-20 18:30:00,57.4,55.1,29.51,ESE,113,7.2,9.8,92,0.01,,,0.02,WUHU216HW,2013-02-21 00:30:00,
2013-02-20 18:35:00,57.6,55.3,29.50,SSE,158,10.5,10.5,92,0.01,,,0.02,WUHU216HW,2013-02-21 00:35:00,
2013-02-20 18:40:00,57.8,55.8,29.50,ESE,113,8.5,10.5,93,0.01,,,0.02,WUHU216HW,2013-02-21 00:40:00,
2013-02-20 18:45:00,58.0,56.0,29.50,ESE,113,9.4,12.1,93,0.01,,,0.02,WUHU216HW,2013-02-21 00:45:00,
2013-02-20 18:50:00,58.0,56.0,29.50,SE,135,8.9,12.1,93,0.01,,,0.02,WUHU216HW,2013-02-21 00:50:00,
2013-02-20 18:55:00,58.0,56.0,29.49,SE,135,7.6,12.1,93,0.01,,,0.02,WUHU216HW,2013-02-21 00:55:00,
2013-02-20 19:00:00,58.0,56.0,29.49,SE,135,6.3,10.1,93,0.01,,,0.02,WUHU216HW,2013-02-21 01:00:00,
2013-02-20 19:05:00,58.1,56.2,29.49,SSE,158,8.7,10.3,93,0.01,,,0.02,WUHU216HW,2013-02-21 01:05:00,
2013-02-20 19:10:00,58.1,56.2,29.49,SE,135,7.6,10.3,93,0.01,,,0.02,WUHU216HW,2013-02-21 01:10:00,
2013-02-20 19:15:00,58.3,56.4,29.49,SE,135,7.6,11.9,93,0.01,,,0.02,WUHU216HW,2013-02-21 01:15:00,
2013-02-20 19:20:00,58.3,56.4,29.49,ESE,113,9.8,11.9,93,0.01,,,0.02,WUHU216HW,2013-02-21 01:20:00,
2013-02-20 19:25:00,58.3,56.4,29.49,SSE,158,8.5,11.2,93,0.00,,,0.02,WUHU216HW,2013-02-21 01:25:00,
2013-02-20 19:30:00,58.5,56.5,29.49,SE,135,9.8,10.7,93,0.00,,,0.02,WUHU216HW,2013-02-21 01:30:00,
2013-02-20 19:35:00,58.5,56.5,29.49,SE,135,7.4,10.3,93,0.00,,,0.02,WUHU216HW,2013-02-21 01:35:00,
2013-02-20 19:40:00,58.7,56.7,29.49,SE,135,8.1,12.1,93,0.00,,,0.02,WUHU216HW,2013-02-21 01:40:00,
2013-02-20 19:45:00,58.7,56.7,29.49,ESE,113,6.9,12.1,93,0.00,,,0.02,WUHU216HW,2013-02-21 01:45:00,
2013-02-20 19:50:00,58.7,56.7,29.49,SE,135,6.5,9.8,93,0.00,,,0.02,WUHU216HW,2013-02-21 01:50:00,
2013-02-20 19:55:00,58.7,56.7,29.49,SE,135,12.8,12.8,93,0.00,,,0.02,WUHU216HW,2013-02-21 01:55:00,
2013-02-20 20:00:00,58.9,56.9,29.48,ESE,113,9.8,12.8,93,0.00,,,0.02,WUHU216HW,2013-02-21 02:00:00,
2013-02-20 20:05:00,58.9,56.9,29.48,SE,135,6.5,11.0,93,0.00,,,0.02,WUHU216HW,2013-02-21 02:05:00,
2013-02-20 20:10:00,59.0,57.1,29.48,SE,135,7.6,11.0,93,0.00,,,0.02,WUHU216HW,2013-02-21 02:10:00,
2013-02-20 20:15:00,59.0,57.1,29.48,SE,135,7.8,10.1,93,0.00,,,0.02,WUHU216HW,2013-02-21 02:15:00,
2013-02-20 20:20:00,59.0,57.1,29.48,SSE,158,7.6,8.5,93,0.00,,,0.02,WUHU216HW,2013-02-21 02:20:00,
2013-02-20 20:25:00,59.2,57.3,29.48,SE,135,9.2,9.2,93,0.00,,,0.02,WUHU216HW,2013-02-21 02:25:00,
2013-02-20 20:30:00,59.4,57.4,29.48,South,180,7.2,9.2,93,0.00,,,0.02,WUHU216HW,2013-02-21 02:30:00,
2013-02-20 20:35:00,59.4,57.4,29.48,SE,135,7.6,8.5,93,0.00,,,0.02,WUHU216HW,2013-02-21 02:35:00,
2013-02-20 20:40:00,59.6,57.6,29.47,SE,135,7.6,8.5,93,0.00,,,0.02,WUHU216HW,2013-02-21 02:40:00,
2013-02-20 20:45:00,59.8,58.1,29.47,SE,135,6.5,11.2,94,0.00,,,0.02,WUHU216HW,2013-02-21 02:45:00,
2013-02-20 20:50:00,59.9,58.2,29.47,SE,135,12.8,12.8,94,0.00,,,0.02,WUHU216HW,2013-02-21 02:50:00,
2013-02-20 20:55:00,60.1,58.4,29.47,SE,135,8.1,12.8,94,0.00,,,0.02,WUHU216HW,2013-02-21 02:55:00,
2013-02-20 21:00:00,60.5,59.0,29.46,SSE,158,6.5,12.8,95,0.00,,,0.02,WUHU216HW,2013-02-21 03:00:00,
2013-02-20 21:05:00,60.8,59.4,29.45,SSE,158,8.7,13.4,95,0.00,,,0.02,WUHU216HW,2013-02-21 03:05:00,
2013-02-20 21:10:00,60.8,59.4,29.45,SE,135,8.7,13.4,95,0.00,,,0.02,WUHU216HW,2013-02-21 03:10:00,
2013-02-20 21:15:00,60.8,59.4,29.45,SE,135,11.9,12.8,95,0.00,,,0.02,WUHU216HW,2013-02-21 03:15:00,
2013-02-20 21:20:00,60.8,59.4,29.45,SSE,158,7.6,12.8,95,0.00,,,0.02,WUHU216HW,2013-02-21 03:20:00,
2013-02-20 21:25:00,60.8,59.4,29.44,SSE,158,9.2,11.9,95,0.00,,,0.02,WUHU216HW,2013-02-21 03:25:00,
2013-02-20 21:30:00,60.8,59.4,29.44,SE,135,12.8,12.8,95,0.00,,,0.02,WUHU216HW,2013-02-21 03:30:00,
2013-02-20 21:35:00,60.8,59.4,29.44,SSE,158,9.6,12.8,95,0.00,,,0.02,WUHU216HW,2013-02-21 03:35:00,
2013-02-20 21:40:00,60.8,59.4,29.43,SE,135,11.4,11.4,95,0.00,,,0.02,WUHU216HW,2013-02-21 03:40:00,
2013-02-20 21:45:00,61.0,59.6,29.43,SE,135,8.7,14.5,95,0.00,,,0.02,WUHU216HW,2013-02-21 03:45:00,
2013-02-20 21:50:00,61.0,59.6,29.43,SE,135,11.0,14.5,95,0.00,,,0.02,WUHU216HW,2013-02-21 03:50:00,
2013-02-20 21:55:00,61.2,59.8,29.43,SE,135,8.5,11.9,95,0.00,,,0.02,WUHU216HW,2013-02-21 03:55:00,
2013-02-20 22:00:00,61.2,59.8,29.43,South,180,8.5,17.4,95,0.00,,,0.02,WUHU216HW,2013-02-21 04:00:00,
2013-02-20 22:05:00,61.4,59.9,29.43,SSW,203,4.9,17.4,95,0.00,,,0.02,WUHU216HW,2013-02-21 04:05:00,
2013-02-20 22:10:00,61.6,60.1,29.43,South,180,8.9,9.6,95,0.00,,,0.02,WUHU216HW,2013-02-21 04:10:00,
2013-02-20 22:15:00,61.7,60.3,29.43,SSE,158,6.3,9.6,95,0.00,,,0.02,WUHU216HW,2013-02-21 04:15:00,
2013-02-20 22:20:00,61.9,60.5,29.42,SSE,158,11.9,11.9,95,0.00,,,0.02,WUHU216HW,2013-02-21 04:20:00,
2013-02-20 22:25:00,62.3,60.8,29.42,South,180,6.5,13.0,95,0.01,,,0.02,WUHU216HW,2013-02-21 04:25:00,
2013-02-20 22:30:00,62.5,61.0,29.42,SSE,158,7.8,13.6,95,0.01,,,0.02,WUHU216HW,2013-02-21 04:30:00,
2013-02-20 22:35:00,62.6,61.2,29.42,SE,135,11.6,13.6,95,0.01,,,0.02,WUHU216HW,2013-02-21 04:35:00,
2013-02-20 22:40:00,62.8,61.4,29.41,SSE,158,9.4,14.5,95,0.01,,,0.02,WUHU216HW,2013-02-21 04:40:00,
2013-02-20 22:45:00,63.0,61.6,29.41,South,180,9.4,16.8,95,0.01,,,0.02,WUHU216HW,2013-02-21 04:45:00,
2013-02-20 22:50:00,63.2,61.7,29.41,South,180,8.7,16.8,95,0.01,,,0.02,WUHU216HW,2013-02-21 04:50:00,
2013-02-20 22:55:00,63.4,61.9,29.41,South,180,11.2,16.3,95,0.01,,,0.02,WUHU216HW,2013-02-21 04:55:00,
2013-02-20 23:00:00,63.4,61.7,29.41,SE,135,9.8,15.0,94,0.01,,,0.02,WUHU216HW,2013-02-21 05:00:00,
2013-02-20 23:05:00,63.4,61.7,29.41,South,180,13.9,14.3,94,0.01,,,0.02,WUHU216HW,2013-02-21 05:05:00,
2013-02-20 23:10:00,63.5,61.8,29.40,SSE,158,12.5,15.7,94,0.01,,,0.02,WUHU216HW,2013-02-21 05:10:00,
2013-02-20 23:15:00,63.5,61.8,29.40,SSE,158,8.1,15.7,94,0.01,,,0.02,WUHU216HW,2013-02-21 05:15:00,
2013-02-20 23:20:00,63.5,61.8,29.40,South,180,8.3,15.9,94,0.01,,,0.02,WUHU216HW,2013-02-21 05:20:00,
2013-02-20 23:25:00,63.7,62.0,29.40,SE,135,9.2,15.9,94,0.00,,,0.02,WUHU216HW,2013-02-21 05:25:00,
2013-02-20 23:30:00,63.7,62.0,29.40,SSE,158,13.2,14.5,94,0.00,,,0.02,WUHU216HW,2013-02-21 05:30:00,
2013-02-20 23:35:00,63.9,62.2,29.40,SE,135,8.7,14.5,94,0.00,,,0.02,WUHU216HW,2013-02-21 05:35:00,
2013-02-20 23:40:00,64.1,62.4,29.40,SSE,158,10.5,14.1,94,0.00,,,0.02,WUHU216HW,2013-02-21 05:40:00,
2013-02-20 23:45:00,64.3,62.6,29.40,SSE,158,7.2,12.8,94,0.00,,,0.02,WUHU216HW,2013-02-21 05:45:00,
2013-02-20 23:50:00,64.4,62.7,29.40,SE,135,9.2,12.8,94,0.00,,,0.02,WUHU216HW,2013-02-21 05:50:00,
2013-02-20 23:55:00,64.4,62.7,29.40,SSE,158,6.9,11.0,94,0.00,,,0.02,WUHU216HW,2013-02-21 05:55:00,